Location: Kellogg
(38.0159°N, 90.0546°W)
Time: 06:58:56
(UTC+00:00)

S-56A Canister/Altair - Pass Details

Date: 20 September 2024
Orbit: 636 x 2487 km, 38.9° (Epoch: 09 October)

Event Time Altitude Azimuth Distance (km) Brightness Sun altitude
Rises 01:07:29 0° 271° (W) 3,152 12.5 -13.8°
Reaches altitude 10° 01:09:35 10° 272° (W) 2,351 11.4 -14.2°
Maximum altitude 01:15:03 83° 1° (N) 1,002 8.1 -15.3°
Enters shadow 01:20:28 21° 88° (E) 2,461 9.5 -16.3°
Drops below altitude 10° 01:23:12 10° 90° (E) 3,437 - -16.8°
Sets 01:26:50 0° 91° (E) 4,723 - -17.5°
